Terminal Aerodrome Forecast
Issued by NWS Austin/San Antonio, TX

Home | Current Version | Previous Version | Text Only | Print | Product List | Glossary On
Versions: 1 2 3 4 5 6 7 8 9 10 11 12 13 14 15 16 17 18 19 20
000
FTUS44 KEWX 010500
TAFAUS
TAF
KAUS 010527Z 0106/0212 03010KT P6SM BKN050
     FM011000 35004KT P6SM BKN030
     FM011700 01007KT P6SM BKN050
     FM020900 01005KT P6SM BKN020=

USA.gov is the U.S. government's official web portal to all federal, state and local government web resources and services.